Blattenbach Aussen Messungen

Zurück zum Überblick

Zeitpunkt Temperatur Temperatur Kabelsensor Luftfeuchte
10.11.2018 06:22:17 5,0 C 10,1 C 90,0%
10.11.2018 06:15:21 4,9 C 10,1 C 89,0%
10.11.2018 06:08:18 4,9 C 10,1 C 89,0%
10.11.2018 06:01:19 4,8 C 10,1 C 88,0%
10.11.2018 05:54:19 4,8 C 10,1 C 88,0%
10.11.2018 05:47:16 4,8 C 10,1 C 88,0%
10.11.2018 05:40:20 4,8 C 10,2 C 88,0%
10.11.2018 05:33:18 4,9 C 10,2 C 87,0%
10.11.2018 05:26:18 5,0 C 10,2 C 87,0%
10.11.2018 05:19:19 5,2 C 10,2 C 87,0%
10.11.2018 05:12:19 5,4 C 10,2 C 88,0%
10.11.2018 05:05:16 5,5 C 10,2 C 88,0%
10.11.2018 04:58:19 5,6 C 10,2 C 88,0%
10.11.2018 04:51:20 5,6 C 10,2 C 88,0%
10.11.2018 04:44:18 5,5 C 10,2 C 88,0%
10.11.2018 04:37:17 5,7 C 10,3 C 88,0%
10.11.2018 04:30:17 5,8 C 10,3 C 88,0%
10.11.2018 04:23:18 5,8 C 10,3 C 88,0%
10.11.2018 04:16:16 5,8 C 10,3 C 89,0%
10.11.2018 04:09:16 5,6 C 10,3 C 89,0%
10.11.2018 04:02:17 5,5 C 10,3 C 88,0%
10.11.2018 03:55:19 5,3 C 10,3 C 88,0%
10.11.2018 03:48:17 5,2 C 10,3 C 87,0%
10.11.2018 03:41:20 5,2 C 10,4 C 87,0%
10.11.2018 03:34:18 5,3 C 10,4 C 87,0%
10.11.2018 03:27:18 5,3 C 10,4 C 88,0%
10.11.2018 03:20:17 5,3 C 10,4 C 87,0%
10.11.2018 03:13:17 5,3 C 10,4 C 87,0%
10.11.2018 03:06:16 5,3 C 10,4 C 87,0%
10.11.2018 02:59:18 5,4 C 10,4 C 87,0%
10.11.2018 02:52:16 5,5 C 10,5 C 87,0%
10.11.2018 02:45:18 5,5 C 10,5 C 88,0%
10.11.2018 02:38:19 5,5 C 10,5 C 87,0%
10.11.2018 02:31:17 5,6 C 10,5 C 87,0%
10.11.2018 02:24:16 5,6 C 10,5 C 86,0%
10.11.2018 02:17:16 5,7 C 10,5 C 86,0%
10.11.2018 02:10:18 5,8 C 10,5 C 86,0%
10.11.2018 02:03:19 5,9 C 10,6 C 86,0%
10.11.2018 01:56:19 6,0 C 10,6 C 87,0%
10.11.2018 01:49:19 6,1 C 10,6 C 87,0%
10.11.2018 01:42:18 6,2 C 10,6 C 86,0%
10.11.2018 01:35:18 6,3 C 10,6 C 87,0%
10.11.2018 01:28:19 6,4 C 10,6 C 86,0%
10.11.2018 01:21:17 6,6 C 10,6 C 86,0%
10.11.2018 01:14:17 6,8 C 10,7 C 86,0%
10.11.2018 01:07:20 7,1 C 10,7 C 86,0%
10.11.2018 01:00:17 7,2 C 10,7 C 87,0%